Location: ???????????
(55.5758°N, 38.4970°E)
Time: 21:28:44
(UTC+00:00)

USA 238 DEB - Pass Details

Date: 15 November 2025
Orbit: 886 x 1325 km, 63.4° (Epoch: 24 November)

Event Time Altitude Azimuth Distance (km) Brightness Sun altitude
Exits shadow 02:03:29 35° 318° (NW) 1,669 4.4 -24.6°
Maximum altitude 02:05:42 45° 1° (N) 1,470 4.4 -24.3°
Drops below altitude 10° 02:12:49 10° 73° (ENE) 3,130 7.1 -23.3°
Sets 02:15:52 0° 79° (E) 4,156 8.2 -22.9°
